Zurück zum Katalog

STARLINK-34719

AktivKommunikationSSO
NORAD 64943·PAYLOAD·🇺🇸 United States

Gestartet Jul 26, 2025 von Vandenberg Space Force Base

Loading…

Nächste Überflüge (nächste 24 Stunden)

TLE

AktuellSource: CelesTrak SupGP

Epoche: Sep 15, 2026, 02:25 UTC

1 64943C 25158M   26258.10118056 -.00045112  00000+0 -13997-2 0  2585
2 64943  97.2850 116.4299 0001460  90.5497 326.5493 15.33478052    17

Verfolge STARLINK-34719 in Echtzeit mit AllMySat

Download on the App Store